sat.trackr.live / text

‹ back to catalog

MOST

NORAD 27843 · 2003-031D

PAYLOAD ACTIVE UNKNOWN

§ Identity

Operator
Country
CA
Launch date
2003-06-30
Launch site
PLMSC
Launch vehicle
Mass (kg)
RCS (m²)
0.29

Purposes: science

External: N2YO · Heavens-Above · Gunter

§ Orbital elements

Epoch: 2026-09-19T23:09:13.294944Z

Period
101.31 min
Inclination
98.7086°
Eccentricity
0.0009512
Mean motion
14.21338419 rev/d
Perigee alt
814.0 km
Apogee alt
827.7 km
Semi-major
7,199.0 km
B*
3.3243e-5
RAAN
269.3835°
Arg perigee
345.4004°
Mean anomaly
14.6897°
Rev number
20,417

§ Raw data

MOST1 27843U 03031D   26262.96473721  .00000029  00000+0  33243-4 0  99972 27843  98.7086 269.3835 0009512 345.4004  14.6897 14.21338419204172

JSON: /api/v1/satellites/27843 · /tle

For live sub-satellite position, see the globe view (requires WebGL).

§ Visibility from observer

Set your observer location to see the next 7 days of passes ≥ 10°. The values pass through the URL so the page stays shareable.

No JS? Fill the form by hand. The geolocation button needs JavaScript.